Weather History for Concord, NH

Change the Weather History Date:

Friday, April 26, 2013

  Actual Average Record
Temperature  
Mean Temperature 44 °F 49 °F  
Max Temperature 61 °F 62 °F 85 °F (1915)
Min Temperature 27 °F 36 °F 19 °F (1893)
Degree Days  
Heating Degree Days 21 16  
Month to date heating degree days 537 540  
Since 1 July heating degree days 6454 6787  
Cooling Degree Days 0 0  
Month to date cooling degree days 0 0  
Year to date cooling degree days 0 0  
Moisture  
Dew Point 28 °F    
Average Humidity 60    
Maximum Humidity 92    
Minimum Humidity 28    
Precipitation  
Precipitation T in 0.11 in 1.12 in (1910)
Month to date precipitation 1.88 2.94  
Year to date precipitation 8.69 11.53  
Snow  
Snow 0.00 in 0.00 in 6.00 in (1874)
Month to date snowfall 0.2 2.7  
Since 1 July snowfall 83.4 61.3  
Snow Depth 0.00 in    
Sea Level Pressure  
Sea Level Pressure 30.39 in    
Wind  
Wind Speed 4 mph (SE)    
Max Wind Speed 13 mph    
Max Gust Speed 20 mph    
Visibility 10 miles    
Events      
T = Trace of Precipitation, MM = Missing Value Source: NWS Daily Summary

Daily Weather History Graph

Daily Weather History Graph

Search for Another Location

Airport:

Trip Planner

Search our weather history database for the weather conditions in past years. The results will help you decide how hot, cold, wet, or windy it might be!

Date:

Astronomy

Apr. 26, 2013 Rise Set
Actual Time 5:46 AM EDT 7:41 PM EDT
Civil Twilight 5:15 AM EDT 8:12 PM EDT
Nautical Twilight 4:38 AM EDT 8:50 PM EDT
Astronomical Twilight 3:57 AM EDT 9:31 PM EDT
Moon 9:03 PM EDT 6:10 AM EDT
Length of Visible Light 14h 57m
Length of Day
13h 55m
Full, 99% of the Moon is Illuminated
Apr 26
Full
May 2
Last Quarter
May 9
New
May 18
First Quarter
May 25
Full

Hourly Weather History & Observations

Time (EDT) Temp. Windchill Dew Point Humidity Pressure Visibility Wind Dir Wind Speed Gust Speed Precip Events Conditions
12:51 AM 35.1 °F - 28.9 °F 78% 30.31 in 10.0 mi Calm Calm - N/A   Clear
1:51 AM 30.9 °F - 27.0 °F 85% 30.32 in 10.0 mi Calm Calm - N/A   Clear
2:51 AM 30.9 °F - 27.0 °F 85% 30.32 in 10.0 mi Calm Calm - N/A   Clear
3:51 AM 30.0 °F - 28.0 °F 92% 30.33 in 10.0 mi Calm Calm - N/A   Clear
4:51 AM 28.9 °F - 27.0 °F 92% 30.35 in 10.0 mi Calm Calm - N/A   Clear
5:51 AM 28.0 °F - 26.1 °F 92% 30.38 in 10.0 mi Calm Calm - N/A   Clear
6:51 AM 30.9 °F - 28.9 °F 92% 30.41 in 10.0 mi Calm Calm - N/A   Clear
7:51 AM 39.0 °F 36.8 °F 30.0 °F 70% 30.41 in 10.0 mi WNW 3.5 mph - N/A   Clear
8:51 AM 46.9 °F - 28.9 °F 50% 30.41 in 10.0 mi West 4.6 mph - N/A   Clear
9:51 AM 53.1 °F - 27.0 °F 37% 30.41 in 10.0 mi Calm Calm - N/A   Clear
10:51 AM 55.9 °F - 26.1 °F 32% 30.41 in 10.0 mi East 11.5 mph - N/A   Clear
11:51 AM 57.9 °F - 27.0 °F 31% 30.41 in 10.0 mi South 8.1 mph - N/A   Mostly Cloudy
12:51 PM 57.0 °F - 26.1 °F 30% 30.39 in 10.0 mi SE 10.4 mph - N/A   Mostly Cloudy
1:51 PM 59.0 °F - 26.1 °F 28% 30.37 in 10.0 mi SE 5.8 mph - N/A   Overcast
2:51 PM 57.9 °F - 27.0 °F 31% 30.37 in 10.0 mi SE 6.9 mph - N/A   Overcast
3:51 PM 57.0 °F - 28.9 °F 34% 30.37 in 10.0 mi South 6.9 mph - 0.00 in   Overcast
4:51 PM 55.9 °F - 28.9 °F 36% 30.38 in 10.0 mi SE 6.9 mph - N/A   Overcast
5:51 PM 55.0 °F - 30.0 °F 38% 30.38 in 10.0 mi ESE 6.9 mph - N/A   Overcast
6:51 PM 54.0 °F - 30.0 °F 40% 30.40 in 10.0 mi SSE 4.6 mph - N/A   Overcast
7:51 PM 51.1 °F - 30.0 °F 44% 30.42 in 10.0 mi SE 3.5 mph - N/A   Overcast
8:51 PM 50.0 °F - 30.0 °F 46% 30.43 in 10.0 mi ESE 3.5 mph - N/A   Mostly Cloudy
9:51 PM 46.9 °F - 30.9 °F 54% 30.43 in 10.0 mi Calm Calm - N/A   Overcast
10:51 PM 43.0 °F - 30.9 °F 62% 30.43 in 10.0 mi Calm Calm - N/A   Clear
11:51 PM 37.9 °F 35.5 °F 30.9 °F 76% 30.43 in 10.0 mi East 3.5 mph - N/A   Mostly Cloudy